Weather History for Kecskemet, Hungary

Change the Weather History Date:

Thursday, January 24, 2013

  Actual Average (LHBP) Record (LHBP)
Temperature  
Mean Temperature 34 °F -  
Max Temperature 35 °F 35 °F 50 °F (2002)
Min Temperature 32 °F 22 °F 1 °F (2006)
Degree Days  
Heating Degree Days 32    
Moisture  
Dew Point 31 °F    
Average Humidity 94    
Maximum Humidity 100    
Minimum Humidity 75    
Precipitation  
Precipitation 0.00 in - - ()
Sea Level Pressure  
Sea Level Pressure 29.74 in    
Wind  
Wind Speed 9 mph ()    
Max Wind Speed 20 mph    
Max Gust Speed 29 mph    
Visibility 1.2 miles    
Events Fog , Rain    
Averages and records for this station are not official NWS values.
T = Trace of Precipitation, MM = Missing Value Source: Averaged Metar Reports

Daily Weather History Graph

Daily Weather History Graph

Search for Another Location

Airport:

Trip Planner

Search our weather history database for the weather conditions in past years. The results will help you decide how hot, cold, wet, or windy it might be!

Date:

Astronomy

Jan. 24, 2013 Rise Set
Actual Time 7:14 AM CET 4:32 PM CET
Civil Twilight 6:41 AM CET 5:05 PM CET
Nautical Twilight 6:04 AM CET 5:42 PM CET
Astronomical Twilight 5:28 AM CET 6:18 PM CET
Moon 2:15 PM CET 5:01 AM CET
Length of Visible Light 10h 23m
Length of Day
9h 17m
Waxing Gibbous, 93% of the Moon is Illuminated
Jan 24
Waxing Gibbous
Jan 27
Full
Feb 3
Last Quarter
Feb 10
New
Feb 17
First Quarter

Hourly Weather History & Observations

Time (CET) Temp. Windchill Dew Point Humidity Pressure Visibility Wind Dir Wind Speed Gust Speed Precip Events Conditions
12:15 AM 35.6 °F - 35.6 °F 100% 29.83 in 0.7 mi East 2.2 mph - N/A   Overcast
12:45 AM 33.8 °F - 33.8 °F 100% 29.80 in 0.6 mi East 2.2 mph - N/A   Overcast
1:02 AM 33.8 °F 29.7 °F 33.8 °F 100% 29.80 in 0.5 mi NE 4.5 mph - N/A Fog Fog
1:15 AM 33.8 °F 29.7 °F 33.8 °F 100% 29.80 in 0.5 mi ENE 4.5 mph - N/A Fog Fog
1:45 AM 33.8 °F 29.7 °F 33.8 °F 100% 29.80 in 0.3 mi ENE 4.5 mph - N/A Fog Fog
2:05 AM 33.8 °F 29.7 °F 33.8 °F 100% 29.80 in 0.2 mi East 4.5 mph - N/A Fog Fog
2:15 AM 33.8 °F 29.7 °F 33.8 °F 100% 29.80 in 0.1 mi ENE 4.5 mph - N/A Fog Fog
2:45 AM 33.8 °F 29.7 °F 33.8 °F 100% 29.80 in 0.1 mi ENE 4.5 mph - N/A Fog Fog
3:15 AM 33.8 °F 29.7 °F 33.8 °F 100% 29.80 in 0.1 mi East 4.5 mph - N/A Fog Fog
3:45 AM 33.8 °F 27.9 °F 33.8 °F 100% 29.80 in 0.1 mi East 6.7 mph - N/A Fog Fog
4:15 AM 33.8 °F 27.9 °F 33.8 °F 100% 29.77 in 0.1 mi East 6.7 mph - N/A Fog Fog
4:45 AM 32.0 °F 25.7 °F 32.0 °F 100% 29.77 in 0.1 mi East 6.7 mph - N/A Fog Fog
5:15 AM - - - N/A% - 0.9 mi Variable 4.5 mph - N/A   Overcast
5:45 AM - - - N/A% - 0.5 mi ENE 8.9 mph - N/A Fog Fog
6:15 AM 32.0 °F 24.3 °F 32.0 °F 100% 29.77 in 0.1 mi East 8.9 mph - N/A Fog Fog
6:45 AM 32.0 °F 24.3 °F 32.0 °F 100% 29.77 in 0.1 mi ENE 8.9 mph - N/A Fog Fog
7:15 AM 32.0 °F 24.3 °F 32.0 °F 100% 29.77 in 0.1 mi ENE 8.9 mph - N/A Fog Fog
7:45 AM 32.0 °F 24.3 °F 32.0 °F 100% 29.80 in 0.2 mi ENE 8.9 mph - N/A Fog Fog
8:15 AM 32.0 °F 23.2 °F 32.0 °F 100% 29.77 in 0.2 mi ENE 11.2 mph - N/A Fog Fog
8:45 AM - - - N/A% - 0.5 mi ENE 13.4 mph - N/A Fog Fog
9:15 AM - - - N/A% - 0.5 mi ENE 13.4 mph - N/A Fog Fog
9:45 AM 32.0 °F 22.2 °F 32.0 °F 100% 29.77 in 0.1 mi NE 13.4 mph - N/A Fog Fog
10:15 AM 32.0 °F 22.2 °F 32.0 °F 100% 29.77 in 0.2 mi NE 13.4 mph - N/A Fog Fog
10:29 AM 32.0 °F 23.2 °F 32.0 °F 100% 29.77 in 0.2 mi NE 11.2 mph - N/A Fog Fog
10:35 AM 32.0 °F 22.2 °F 32.0 °F 100% 29.77 in 0.4 mi NE 13.4 mph - N/A Fog Fog
10:45 AM 33.8 °F 24.5 °F 33.8 °F 100% 29.77 in 0.5 mi NE 13.4 mph - N/A Fog Fog
11:15 AM 32.0 °F 20.6 °F 32.0 °F 100% 29.74 in 0.5 mi ENE 17.9 mph - N/A Fog Fog
11:45 AM - - - N/A% - 0.9 mi NE 15.7 mph - N/A   Overcast
12:15 PM 33.8 °F 23.7 °F 33.8 °F 100% 29.71 in 0.7 mi NE 15.7 mph - N/A   Mostly Cloudy
12:32 PM 33.8 °F 23.7 °F 33.8 °F 100% 29.71 in 0.9 mi NE 15.7 mph - N/A   Mostly Cloudy
12:45 PM 33.8 °F 23.7 °F 33.8 °F 100% 29.71 in 1.2 mi NE 15.7 mph - N/A   Mostly Cloudy
1:06 PM 35.6 °F 25.3 °F 33.8 °F 93% 29.71 in 1.9 mi NE 17.9 mph - N/A   Mostly Cloudy
1:15 PM 35.6 °F 24.7 °F 32.0 °F 87% 29.68 in 1.9 mi NE 20.1 mph - N/A   Scattered Clouds
1:45 PM 35.6 °F 25.3 °F 33.8 °F 93% 29.68 in 2.5 mi NE 17.9 mph - N/A   Mostly Cloudy
2:15 PM 35.6 °F 26.0 °F 32.0 °F 87% 29.68 in 2.5 mi NE 15.7 mph - N/A   Scattered Clouds
2:45 PM - - - N/A% - 3.1 mi NE 15.7 mph - N/A   Overcast
3:15 PM 33.8 °F 24.5 °F 32.0 °F 93% 29.71 in 2.5 mi NE 13.4 mph - N/A   Mostly Cloudy
3:45 PM 33.8 °F 23.7 °F 32.0 °F 93% 29.71 in 2.5 mi NE 15.7 mph - N/A   Mostly Cloudy
4:15 PM 32.0 °F 22.2 °F 30.2 °F 93% 29.71 in 2.5 mi NE 13.4 mph - N/A   Mostly Cloudy
4:45 PM 32.0 °F 22.2 °F 30.2 °F 93% 29.71 in 2.5 mi NE 13.4 mph - N/A   Mostly Cloudy
5:15 PM 32.0 °F 22.2 °F 30.2 °F 93% 29.68 in 2.5 mi NNE 13.4 mph - N/A   Mostly Cloudy
5:45 PM - - - N/A% - 3.1 mi NNE 13.4 mph - N/A   Mist
6:15 PM 32.0 °F 20.6 °F 30.2 °F 93% 29.68 in 3.1 mi NE 17.9 mph - N/A   Mostly Cloudy
6:45 PM 32.0 °F 20.6 °F 28.4 °F 87% 29.68 in 4.3 mi NE 17.9 mph - N/A   Unknown
7:15 PM 32.0 °F 21.4 °F 28.4 °F 87% 29.68 in 5.0 mi NE 15.7 mph 26.8 mph N/A   Unknown
7:45 PM 32.0 °F 21.4 °F 28.4 °F 87% 29.68 in - NE 15.7 mph - N/A   Clear
8:15 PM 32.0 °F 20.6 °F 26.6 °F 80% 29.68 in - NE 17.9 mph 29.1 mph N/A   Clear
8:45 PM - - - N/A% - 3.1 mi NE 13.4 mph - N/A Rain Light Rain Showers
9:15 PM 32.0 °F 21.4 °F 26.6 °F 80% 29.68 in - NE 15.7 mph - N/A   Clear
9:45 PM 32.0 °F 21.4 °F 24.8 °F 75% 29.68 in - NNE 15.7 mph - N/A   Clear
10:15 PM 32.0 °F 23.2 °F 24.8 °F 75% 29.68 in - NNE 11.2 mph - N/A   Clear
10:45 PM 32.0 °F 23.2 °F 24.8 °F 75% 29.68 in - NNE 11.2 mph - N/A   Clear
11:15 PM 32.0 °F 22.2 °F 24.8 °F 75% 29.71 in - NNE 13.4 mph - N/A   Clear
11:45 PM - - - N/A% - 3.1 mi North - - N/A Rain Light Rain Showers